This is the latest recevied weather packets stored in our database for station/object OE-11061. If no packets are shown the sender has not sent any weather packets the latest 10 day(s).
| Time | Temp. | Humidity | Pressure | Rain* | Wind** | Luminosity | Snow |
|---|---|---|---|---|---|---|---|
| 1788009093 | 23.89° C | 50% | 1015.6 hPa | 0 mm | - | 448 W/m² | - |
| 1788008721 | 23.89° C | 53% | 1015.7 hPa | 0 mm | - | 530 W/m² | - |
| 1788008121 | 24.44° C | 55% | 1015.6 hPa | 0 mm | - | 814 W/m² | - |
| 1788007294 | 24.44° C | 52% | 1015.7 hPa | 0 mm | - | 784 W/m² | - |
| 1788006921 | 23.89° C | 51% | 1015.9 hPa | 0 mm | - | 777 W/m² | - |
| 1788006321 | 24.44° C | 52% | 1016 hPa | 0 mm | - | 784 W/m² | - |
| 1788005493 | 23.89° C | 54% | 1016.2 hPa | 0 mm | - | 792 W/m² | - |
| 1788005121 | 23.33° C | 55% | 1016.2 hPa | 0 mm | - | 627 W/m² | - |
| 1788004521 | 23.33° C | 54% | 1016.3 hPa | 0 mm | - | 747 W/m² | - |
| 1788003694 | 22.22° C | 57% | 1016.6 hPa | 0 mm | - | 291 W/m² | - |
| 1788003321 | 22.78° C | 53% | 1016.6 hPa | 0 mm | - | 485 W/m² | - |
| 1788002721 | 23.33° C | 55% | 1016.7 hPa | 0 mm | - | 732 W/m² | - |
| 1788001894 | 23.33° C | 55% | 1016.6 hPa | 0 mm | - | 896 W/m² | - |
| 1788001521 | 23.33° C | 57% | 1016.8 hPa | 0 mm | - | 836 W/m² | - |
| 1788000921 | 22.22° C | 59% | 1017.1 hPa | 0 mm | - | 314 W/m² | - |
| 1788000094 | 23.33° C | 55% | 1016.8 hPa | 0 mm | - | 814 W/m² | - |
| 1787999721 | 23.89° C | 56% | 1016.9 hPa | 0 mm | - | 784 W/m² | - |
| 1787999121 | 23.33° C | 56% | 1016.9 hPa | 0 mm | - | 762 W/m² | - |
| 1787998294 | 22.78° C | 56% | 1017 hPa | 0 mm | - | 747 W/m² | - |
| 1787997920 | 23.33° C | 56% | 1017 hPa | 0 mm | - | 739 W/m² | - |
| 1787997321 | 22.78° C | 55% | 1017.2 hPa | 0 mm | - | 732 W/m² | - |
| 1787996494 | 22.78° C | 57% | 1017.2 hPa | 0 mm | - | 724 W/m² | - |
| 1787996121 | 22.22° C | 58% | 1017.5 hPa | 0 mm | - | 717 W/m² | - |
| 1787995521 | 22.78° C | 62% | 1017.5 hPa | 0 mm | - | 702 W/m² | - |
| 1787994694 | 22.22° C | 66% | 1017.5 hPa | 0 mm | - | 687 W/m² | - |
* Rain latest hour (hover to see other rain measurements)
** Current wind speed in m/s (hover to see current wind gust speed)